When you browse on this site, cookies collect data to enhance your experience and personalize the content and advertising you see.
Visit our Privacy Policy to learn more. By continuing to use the site, you agree to this use of cookies and data.
  • In Switzerland
  • List of Countries
  • For 7 days
  • Water Temperature
  • Satellite Maps
  • Weather Map
  • Weather Widgets
  • user-avatar
    Login

    Hourly Weather Lokot

    Today, 19 January, Saturday

    Time Temperature Precipitation Wind Pressure Humidity
    00:00 -8°C° 0.1 mm 4 mps 746 mmHg 90%
    01:00 -8°C° 0.1 mm 4 mps 747 mmHg 90%
    02:00 -7°C° 0 mm 4 mps 747 mmHg 89%
    03:00 -7°C° 0.1 mm 3 mps 747 mmHg 90%
    04:00 -9°C° 0.1 mm 3 mps 748 mmHg 91%
    05:00 -9°C° 0.1 mm 2 mps 748 mmHg 91%
    06:00 -10°C° 0 mm 2 mps 749 mmHg 92%
    07:00 -10°C° 0 mm 2 mps 749 mmHg 93%
    08:00 -12°C° 0 mm 2 mps 750 mmHg 93%
    09:00 -10°C° 0 mm 2 mps 750 mmHg 92%
    10:00 -10°C° 0 mm 2 mps 751 mmHg 90%
    11:00 -10°C° 0 mm 3 mps 751 mmHg 89%
    12:00 -9°C° 0 mm 3 mps 751 mmHg 89%
    13:00 -8°C° 0 mm 3 mps 751 mmHg 89%
    14:00 -7°C° 0 mm 3 mps 752 mmHg 89%
    15:00 -7°C° 0 mm 3 mps 752 mmHg 90%
    16:00 -7°C° 0 mm 3 mps 752 mmHg 91%
    17:00 -7°C° 0 mm 3 mps 752 mmHg 92%
    18:00 -7°C° 0 mm 3 mps 752 mmHg 92%
    19:00 -7°C° 0 mm 3 mps 752 mmHg 92%
    20:00 -7°C° 0 mm 3 mps 752 mmHg 92%
    21:00 -8°C° 0 mm 4 mps 751 mmHg 91%
    22:00 -8°C° 0 mm 4 mps 750 mmHg 90%
    23:00 -8°C° 0 mm 5 mps 750 mmHg 90%

    Tomorrow, 20 January, Sunday

    Time Temperature Precipitation Wind Pressure Humidity
    00:00 -6°C° 0.3 mm 5 mps 749 mmHg 89%
    01:00 -5°C° 0.3 mm 6 mps 749 mmHg 88%
    02:00 -4°C° 0.3 mm 6 mps 748 mmHg 87%
    03:00 -4°C° 0.7 mm 6 mps 748 mmHg 84%
    04:00 -4°C° 0.7 mm 5 mps 747 mmHg 81%
    05:00 -4°C° 0.7 mm 5 mps 747 mmHg 77%
    06:00 -6°C° 0 mm 5 mps 747 mmHg 78%
    07:00 -7°C° 0 mm 4 mps 747 mmHg 79%
    08:00 -8°C° 0 mm 4 mps 748 mmHg 80%
    09:00 -8°C° 0 mm 4 mps 748 mmHg 80%
    10:00 -7°C° 0 mm 5 mps 749 mmHg 80%
    11:00 -7°C° 0 mm 5 mps 749 mmHg 80%
    12:00 -7°C° 0 mm 5 mps 749 mmHg 80%
    13:00 -8°C° 0 mm 5 mps 750 mmHg 81%
    14:00 -8°C° 0 mm 5 mps 750 mmHg 81%
    15:00 -9°C° 0 mm 4 mps 750 mmHg 83%
    16:00 -9°C° 0 mm 4 mps 751 mmHg 85%
    17:00 -9°C° 0 mm 3 mps 751 mmHg 88%
    18:00 -9°C° 0 mm 3 mps 751 mmHg 88%
    19:00 -9°C° 0 mm 3 mps 752 mmHg 88%
    20:00 -9°C° 0 mm 3 mps 752 mmHg 88%
    21:00 -10°C° 0 mm 3 mps 752 mmHg 90%
    22:00 -12°C° 0 mm 3 mps 753 mmHg 92%
    23:00 -12°C° 0 mm 2 mps 753 mmHg 94%

    Day after tomorrow, 21 January, Monday

    Time Temperature Precipitation Wind Pressure Humidity
    00:00 -12°C° 0 mm 2 mps 753 mmHg 94%
    01:00 -13°C° 0 mm 2 mps 753 mmHg 95%
    02:00 -14°C° 0 mm 2 mps 753 mmHg 95%
    03:00 -14°C° 0 mm 2 mps 753 mmHg 95%
    04:00 -14°C° 0 mm 2 mps 753 mmHg 95%
    05:00 -14°C° 0 mm 2 mps 753 mmHg 95%
    06:00 -14°C° 0 mm 2 mps 754 mmHg 95%
    07:00 -14°C° 0 mm 2 mps 754 mmHg 95%
    08:00 -14°C° 0 mm 2 mps 754 mmHg 95%
    09:00 -13°C° 0 mm 2 mps 754 mmHg 94%
    10:00 -13°C° 0 mm 2 mps 755 mmHg 94%
    11:00 -12°C° 0 mm 2 mps 755 mmHg 93%
    12:00 -12°C° 0 mm 2 mps 755 mmHg 92%
    13:00 -9°C° 0 mm 1 mps 756 mmHg 91%
    14:00 -9°C° 0 mm 1 mps 756 mmHg 91%
    15:00 -10°C° 0 mm 1 mps 756 mmHg 92%
    16:00 -12°C° 0 mm 1 mps 756 mmHg 94%
    17:00 -13°C° 0 mm 1 mps 756 mmHg 96%
    18:00 -13°C° 0 mm 1 mps 756 mmHg 96%
    19:00 -14°C° 0 mm 1 mps 756 mmHg 96%
    20:00 -14°C° 0 mm 0 mps 756 mmHg 96%
    21:00 -14°C° 0 mm 0 mps 756 mmHg 96%
    22:00 -15°C° 0 mm 0 mps 757 mmHg 96%
    23:00 -15°C° 0 mm 0 mps 757 mmHg 96%

    22 January, Tuesday

    Time Temperature Precipitation Wind Pressure Humidity
    00:00 -15°C° 0 mm 0 mps 757 mmHg 96%
    01:00 -15°C° 0 mm 0 mps 757 mmHg 96%
    02:00 -15°C° 0 mm 0 mps 757 mmHg 96%
    03:00 -15°C° 0 mm 0 mps 757 mmHg 96%
    04:00 -15°C° 0 mm 1 mps 756 mmHg 96%
    05:00 -15°C° 0 mm 1 mps 756 mmHg 96%
    06:00 -16°C° 0 mm 1 mps 756 mmHg 97%
    07:00 -16°C° 0 mm 1 mps 756 mmHg 97%
    08:00 -16°C° 0 mm 1 mps 756 mmHg 97%
    09:00 -16°C° 0 mm 1 mps 756 mmHg 96%
    10:00 -15°C° 0 mm 1 mps 756 mmHg 94%
    11:00 -14°C° 0 mm 1 mps 756 mmHg 93%
    12:00 -14°C° 0 mm 1 mps 756 mmHg 92%
    13:00 -13°C° 0 mm 1 mps 756 mmHg 91%
    14:00 -13°C° 0 mm 1 mps 756 mmHg 91%
    15:00 -14°C° 0 mm 1 mps 756 mmHg 92%
    16:00 -15°C° 0 mm 1 mps 756 mmHg 94%
    17:00 -16°C° 0 mm 1 mps 756 mmHg 96%
    18:00 -17°C° 0 mm 1 mps 756 mmHg 97%
    19:00 -17°C° 0 mm 1 mps 756 mmHg 97%
    20:00 -18°C° 0 mm 1 mps 756 mmHg 97%
    21:00 -18°C° 0 mm 1 mps 756 mmHg 97%
    22:00 -18°C° 0 mm 1 mps 756 mmHg 96%
    23:00 -18°C° 0 mm 0 mps 756 mmHg 96%

    23 January, Wednesday

    Time Temperature Precipitation Wind Pressure Humidity
    00:00 -18°C° 0 mm 0 mps 756 mmHg 95%
    01:00 -18°C° 0 mm 0 mps 757 mmHg 95%
    02:00 -18°C° 0 mm 0 mps 757 mmHg 94%
    03:00 -18°C° 0 mm 0 mps 757 mmHg 94%
    04:00 -18°C° 0 mm 1 mps 757 mmHg 94%
    05:00 -18°C° 0 mm 1 mps 757 mmHg 94%
    06:00 -18°C° 0 mm 1 mps 757 mmHg 95%
    07:00 -18°C° 0 mm 1 mps 757 mmHg 95%
    08:00 -18°C° 0 mm 1 mps 757 mmHg 95%
    09:00 -17°C° 0 mm 1 mps 757 mmHg 94%
    10:00 -16°C° 0 mm 1 mps 757 mmHg 93%
    11:00 -15°C° 0 mm 1 mps 757 mmHg 92%
    12:00 -16°C° 0 mm 2 mps 757 mmHg 92%
    13:00 -15°C° 0 mm 2 mps 757 mmHg 92%
    14:00 -14°C° 0 mm 2 mps 757 mmHg 91%
    15:00 -15°C° 0 mm 2 mps 757 mmHg 93%
    16:00 -15°C° 0 mm 2 mps 757 mmHg 95%
    17:00 -15°C° 0 mm 2 mps 757 mmHg 97%
    18:00 -15°C° 0 mm 2 mps 757 mmHg 96%
    19:00 -14°C° 0 mm 2 mps 757 mmHg 96%
    20:00 -14°C° 0 mm 2 mps 757 mmHg 96%
    21:00 -13°C° 0 mm 2 mps 757 mmHg 96%
    22:00 -12°C° 0 mm 2 mps 757 mmHg 95%
    23:00 -12°C° 0 mm 2 mps 757 mmHg 95%

    24 January, Thursday

    Time Temperature Precipitation Wind Pressure Humidity
    00:00 -10°C° 0.2 mm 2 mps 757 mmHg 95%
    01:00 -10°C° 0.2 mm 2 mps 757 mmHg 95%
    02:00 -12°C° 0.2 mm 3 mps 757 mmHg 95%
    03:00 -10°C° 0.3 mm 3 mps 757 mmHg 95%
    04:00 -9°C° 0.3 mm 2 mps 757 mmHg 95%
    05:00 -9°C° 0.3 mm 2 mps 756 mmHg 95%
    06:00 -9°C° 0.2 mm 2 mps 757 mmHg 95%
    07:00 -9°C° 0.2 mm 2 mps 757 mmHg 95%
    08:00 -9°C° 0.2 mm 2 mps 757 mmHg 95%
    09:00 -8°C° 0.1 mm 2 mps 757 mmHg 95%
    10:00 -7°C° 0.1 mm 1 mps 757 mmHg 94%
    11:00 -6°C° 0.1 mm 1 mps 758 mmHg 94%
    12:00 -6°C° 0.1 mm 1 mps 758 mmHg 92%
    13:00 -6°C° 0.1 mm 1 mps 758 mmHg 91%
    14:00 -6°C° 0.1 mm 1 mps 758 mmHg 89%
    15:00 -8°C° 0 mm 2 mps 758 mmHg 91%
    16:00 -9°C° 0 mm 2 mps 758 mmHg 93%
    17:00 -10°C° 0 mm 2 mps 759 mmHg 95%
    18:00 -10°C° 0 mm 2 mps 759 mmHg 95%
    19:00 -12°C° 0 mm 2 mps 759 mmHg 94%
    20:00 -13°C° 0 mm 2 mps 760 mmHg 94%
    21:00 -14°C° 0 mm 2 mps 760 mmHg 94%
    22:00 -14°C° 0 mm 2 mps 761 mmHg 94%
    23:00 -15°C° 0 mm 2 mps 761 mmHg 94%
    Show more